Date String (YYYY-MM-DD hh:mm:ss) UTC,Instrument flags,Ambient pressure (hPa),Sample flow (lpm),Bypass flow (lpm),Sample temperature (°C),Ambient temperature (°C),ASC tube jacket temperature (°C),LED temperature (°C),Box temperature (°C),Sample RH (%),Span deviation,Mass concentration (μg/m³),Mass concentration (μg/m³),Mass concentration (μg/m³)
DateTimeUTC,F1_M11,P_M11,Q1_M11,Q2_M11,T1_M11,T2_M11,T3_M11,T4_M11,T5_M11,U1_M11,ZSPAN_M11,X0_M11,X2_M11,X1_M11
2022-08-02 00:00:00,,0828.3,4.99,0.00,29.3,28.2,00.0,38.0,31.3,29.8,0000.0,0009.77,0006.37,0006.00
2022-08-02 00:01:00,,0828.3,5.01,0.00,29.3,28.3,00.0,38.0,31.3,29.4,0000.0,0009.87,0006.38,0006.00
2022-08-02 00:02:00,,0828.3,5.00,0.00,29.3,27.9,00.0,38.0,31.3,29.8,0000.0,0010.00,0006.38,0005.99
2022-08-02 00:03:00,,0828.3,5.01,0.00,29.3,27.3,00.0,38.0,31.1,30.3,0000.0,0010.62,0006.40,0005.99
2022-08-02 00:04:00,,0828.3,4.98,0.00,29.2,27.0,00.0,38.0,31.0,30.6,0000.0,0010.58,0006.41,0005.99
2022-08-02 00:05:00,,0828.3,5.02,0.00,29.2,27.0,00.0,37.9,30.9,30.7,0000.0,0010.56,0006.44,0006.00
2022-08-02 00:06:00,,0828.3,4.99,0.00,29.1,27.1,00.0,37.9,30.9,30.7,0000.0,0010.50,0006.44,0006.00
2022-08-02 00:07:00,,0828.3,5.01,0.00,29.1,27.3,00.0,37.9,31.0,30.8,0000.0,0010.33,0006.44,0006.00
2022-08-02 00:08:00,,0828.3,5.00,0.00,29.1,27.5,00.0,37.9,31.0,31.4,0000.0,0010.02,0006.40,0006.01
2022-08-02 00:09:00,,0828.3,5.01,0.00,29.2,27.7,00.0,37.9,31.1,31.7,0000.0,0009.96,0006.42,0006.03
2022-08-02 00:10:00,,0828.3,5.00,0.00,29.2,27.9,00.0,37.9,31.1,31.8,0000.0,0010.02,0006.46,0006.05
2022-08-02 00:11:00,,0828.3,5.00,0.00,29.2,28.0,00.0,38.0,31.2,31.3,0000.0,0010.00,0006.47,0006.07
2022-08-02 00:12:00,,0828.3,5.00,0.00,29.3,28.2,00.0,38.0,31.3,31.2,0000.0,0009.85,0006.45,0006.06
2022-08-02 00:13:00,,0828.3,5.01,0.00,29.3,28.3,00.0,38.0,31.3,31.0,0000.0,0009.88,0006.44,0006.06
2022-08-02 00:14:00,,0828.3,5.00,0.00,29.3,28.1,00.0,38.0,31.3,30.9,0000.0,0009.40,0006.44,0006.06
2022-08-02 00:15:00,,0828.2,4.99,0.00,29.3,27.4,00.0,38.0,31.1,31.0,0000.0,0009.62,0006.43,0006.05
2022-08-02 00:16:00,,0828.3,5.01,0.00,29.3,27.0,00.0,38.0,31.0,31.3,0000.0,0009.47,0006.38,0006.03
2022-08-02 00:17:00,,0828.2,5.01,0.00,29.2,27.0,00.0,38.0,30.9,31.1,0000.0,0009.40,0006.36,0006.03
2022-08-02 00:18:00,,0828.2,5.00,0.00,29.1,27.1,00.0,37.9,30.9,31.0,0000.0,0009.41,0006.36,0006.03
2022-08-02 00:19:00,,0828.2,4.99,0.00,29.1,27.2,00.0,37.9,30.9,31.0,0000.0,0009.56,0006.40,0006.02
2022-08-02 00:20:00,,0828.4,5.00,0.00,29.1,27.4,00.0,37.9,31.0,30.9,0000.0,0009.61,0006.39,0005.99
2022-08-02 00:21:00,,0828.2,5.00,0.00,29.1,27.6,00.0,37.9,31.1,30.8,0000.0,0009.46,0006.31,0005.96
2022-08-02 00:22:00,,0828.2,5.00,0.00,29.2,27.8,00.0,37.9,31.1,30.7,0000.0,0009.38,0006.26,0005.94
2022-08-02 00:23:00,,0828.2,5.00,0.00,29.2,28.0,00.0,38.0,31.2,30.7,0000.0,0009.33,0006.22,0005.92
2022-08-02 00:24:00,,0828.1,5.00,0.00,29.2,28.1,00.0,38.0,31.2,30.7,0000.0,0008.94,0006.20,0005.90
2022-08-02 00:25:00,,0828.2,5.00,0.00,29.3,28.2,00.0,38.0,31.3,30.4,0000.0,0008.79,0006.18,0005.89
2022-08-02 00:26:00,,0828.1,5.00,0.00,29.3,28.3,00.0,38.0,31.3,30.2,0000.0,0008.61,0006.17,0005.87
2022-08-02 00:27:00,,0828.1,5.00,0.00,29.3,28.0,00.0,38.0,31.3,29.9,0000.0,0008.66,0006.18,0005.85
2022-08-02 00:28:00,,0828.1,5.00,0.00,29.3,27.3,00.0,38.0,31.1,29.9,0000.0,0008.64,0006.16,0005.84
2022-08-02 00:29:00,,0828.1,5.00,0.00,29.3,27.0,00.0,38.0,31.0,29.7,0000.0,0008.56,0006.12,0005.81
2022-08-02 00:30:00,,0828.1,5.02,0.00,29.2,27.0,00.0,38.0,30.9,29.5,0000.0,0008.42,0006.07,0005.80
2022-08-02 00:31:00,,0828.0,4.99,0.00,29.1,27.1,00.0,37.9,30.9,29.1,0000.0,0008.41,0006.05,0005.79
2022-08-02 00:32:00,,0828.0,4.99,0.00,29.1,27.3,00.0,37.9,31.0,29.4,0000.4,0008.97,0006.05,0005.78
2022-08-02 00:33:00,,0828.0,5.01,0.00,29.1,27.5,00.0,37.9,31.0,29.0,0000.6,0009.23,0006.08,0005.77
2022-08-02 00:34:00,,0828.0,5.00,0.00,29.2,27.7,00.0,37.9,31.1,29.2,0001.1,0009.22,0006.08,0005.77
2022-08-02 00:35:00,,0827.9,5.00,0.00,29.2,27.8,00.0,37.9,31.2,29.1,0000.8,0009.21,0006.07,0005.76
2022-08-02 00:36:00,,0827.9,5.00,0.00,29.2,28.0,00.0,38.0,31.2,28.7,0000.6,0009.09,0006.04,0005.75
2022-08-02 00:37:00,,0827.9,4.99,0.00,29.3,28.1,00.0,38.0,31.3,29.1,0000.8,0008.99,0006.01,0005.74
2022-08-02 00:38:00,,0827.9,5.00,0.00,29.3,28.3,00.0,38.0,31.3,29.2,0000.2,0008.94,0005.98,0005.73
2022-08-02 00:39:00,,0827.9,5.00,0.00,29.3,28.1,00.0,38.0,31.3,29.4,-000.0,0008.95,0005.98,0005.71
2022-08-02 00:40:00,,0827.9,5.00,0.00,29.3,27.4,00.0,38.0,31.1,29.6,0000.2,0008.99,0006.00,0005.70
2022-08-02 00:41:00,,0827.9,5.01,0.00,29.3,27.0,00.0,38.0,31.0,29.1,-000.1,0008.99,0005.99,0005.69
2022-08-02 00:42:00,,0827.8,5.00,0.00,29.2,26.9,00.0,37.9,31.0,29.0,-000.1,0009.00,0005.98,0005.68
2022-08-02 00:43:00,,0827.7,5.00,0.00,29.1,27.0,00.0,37.9,30.9,29.0,-000.0,0008.91,0005.99,0005.68
2022-08-02 00:44:00,,0827.7,5.01,0.00,29.1,27.2,00.0,37.9,30.9,28.4,0000.0,0009.43,0005.97,0005.68
2022-08-02 00:45:00,,0827.7,5.00,0.00,29.1,27.4,00.0,37.9,31.0,28.7,0000.0,0009.77,0006.00,0005.68
2022-08-02 00:46:00,,0827.7,5.00,0.00,29.1,27.6,00.0,37.9,31.1,28.2,-000.2,0009.94,0006.03,0005.70
2022-08-02 00:47:00,,0827.6,5.00,0.00,29.2,27.7,00.0,37.9,31.1,27.9,-000.2,0010.29,0006.04,0005.71
2022-08-02 00:48:00,,0827.6,5.00,0.00,29.2,27.9,00.0,38.0,31.2,27.8,-000.3,0010.65,0006.06,0005.72
2022-08-02 00:49:00,,0827.7,5.00,0.00,29.2,28.1,00.0,38.0,31.2,27.7,-000.3,0011.09,0006.05,0005.74
2022-08-02 00:50:00,,0827.7,5.00,0.00,29.3,28.2,00.0,38.0,31.3,27.5,-000.6,0011.31,0006.08,0005.77
2022-08-02 00:51:00,,0827.7,4.99,0.00,29.3,28.3,00.0,38.0,31.3,27.5,-000.6,0011.44,0006.08,0005.79
2022-08-02 00:52:00,,0827.6,5.00,0.00,29.4,28.3,00.0,38.0,31.3,27.0,-000.1,0011.51,0006.12,0005.81
2022-08-02 00:53:00,,0827.6,5.00,0.00,29.3,27.7,00.0,38.0,31.1,27.0,0000.1,0011.50,0006.14,0005.84
2022-08-02 00:54:00,,0827.6,4.99,0.00,29.3,27.1,00.0,38.0,31.0,27.0,0000.6,0011.15,0006.20,0005.86
2022-08-02 00:55:00,,0827.5,5.00,0.00,29.2,26.9,00.0,38.0,31.0,27.3,0001.2,0010.53,0006.25,0005.91
2022-08-02 00:56:00,,0827.5,5.01,0.00,29.2,27.0,00.0,38.0,30.9,27.6,0001.4,0010.37,0006.29,0005.95
2022-08-02 00:57:00,,0827.5,4.99,0.00,29.1,27.2,00.0,37.9,30.9,27.3,0001.6,0010.43,0006.33,0005.96
2022-08-02 00:58:00,,0827.4,5.01,0.00,29.1,27.3,00.0,37.9,31.0,27.3,0002.1,0010.31,0006.36,0005.98
2022-08-02 00:59:00,,0827.5,5.00,0.00,29.2,27.5,00.0,37.9,31.0,27.2,0001.7,0010.06,0006.38,0006.01
